#timestamp,LO_Frequency,Hit,StdDev 
1645236015.9,286047004.8,P
1645236035.7,286047005.5,N
1645236055.5,286047004.0,N
1645236075.4,286047005.3,N
1645236095.2,286047002.8,N
1645236115.1,286047001.8,N
1645236116.0,286047001.8,N
1645236135.8,286047007.3,N
1645236155.6,286047007.7,N
1645236175.5,286047013.4,Y
1645236195.3,286047010.5,P
1645236215.1,286047008.4,N
1645236235.9,286047009.2,P
1645236255.7,286047007.4,N
1645236275.6,286047005.1,N
1645236295.4,286047000.7,N
1645236315.2,286046998.0,N
1645236335.1,286046996.5,N
1645236336.0,286046996.5,N
1645236355.8,286047000.6,N
1645236375.6,286047003.1,N
1645236395.5,286046999.7,N
1645236415.3,286047001.7,N
1645236435.2,286047000.5,N
1645236455.9,286046998.6,N
1645236475.7,286046998.9,N
1645236495.6,286046991.0,N
1645236515.4,286046994.9,N
1645236535.2,286046999.4,N
1645236555.1,286046998.2,N
1645236556.0,286046998.2,N
1645236575.8,286047003.9,N
1645236595.7,286047004.3,N
1645236615.5,286046999.8,N
1645236635.3,286047000.7,N
1645236655.2,286047003.5,N
1645236675.0,286046996.9,N
1645236675.9,286046996.9,N
1645236695.8,286046995.1,N
1645236715.6,286046997.0,N
1645236735.4,286046999.9,N
1645236755.3,286047005.1,N
1645236775.1,286047006.4,N
1645236795.8,286047006.9,N
1645236815.7,286047006.7,N
1645236835.5,286047004.8,N
1645236855.4,286047003.2,N
1645236875.2,286047009.2,N
1645236895.0,286047005.4,N
1645236895.9,286047005.4,N
1645236915.8,286047007.0,N
1645236935.6,286047007.5,N
1645236955.5,286047004.0,N
1645236975.3,286047001.8,N
1645236995.1,286047000.1,N
1645237015.9,286046995.2,N
1645237035.7,286046985.7,Y
1645237055.5,286046982.7,P
1645237075.4,286046980.7,N
1645237095.2,286046987.7,N
1645237115.1,286046989.1,N
1645237116.0,286046989.1,N
1645237135.8,286046992.0,N
1645237155.6,286046998.9,N
1645237175.5,286047000.1,N
1645237195.3,286047002.6,N
1645237215.1,286047000.4,N
1645237235.9,286047011.9,N
1645237255.7,286046998.3,N
1645237275.6,286046996.2,N
1645237295.4,286046992.2,N
1645237315.2,286046993.3,N
1645237335.1,286047000.0,N
1645237336.0,286047000.0,N
1645237355.8,286047005.7,N
1645237375.6,286047006.4,N
1645237395.5,286047006.6,N
1645237415.3,286047012.4,N
1645237435.2,286047012.4,N
1645237455.9,286047004.2,N
1645237475.7,286047005.0,N
1645237495.6,286047004.7,N
1645237515.4,286047001.4,N
1645237535.2,286047001.8,N
1645237555.1,286047001.9,N
1645237556.0,286047001.9,N
1645237575.8,286047000.4,N
1645237595.7,286047001.0,N
1645237615.5,286046998.7,N
1645237635.3,286047000.7,N
1645237655.2,286047001.5,N
1645237675.9,286047003.8,N
1645237695.7,286047004.6,N
1645237715.6,286046998.7,N
1645237735.4,286046995.2,N
1645237755.2,286046997.0,N
1645237775.1,286046999.6,N
1645237776.0,286046999.6,N
1645237795.8,286047002.2,N
1645237815.7,286046999.6,N
1645237835.5,286046994.3,N
1645237855.3,286046990.3,N
1645237875.2,286046991.3,N
1645237895.0,286046995.5,N
1645237895.9,286046995.5,N
1645237915.8,286046994.8,N
1645237935.6,286046993.6,N
1645237955.4,286046996.7,N
1645237975.3,286047002.5,N
1645237995.1,286046998.6,N
1645238015.8,286046998.8,N
1645238035.7,286047000.5,N
1645238055.5,286046994.9,N
1645238075.3,286047001.2,N
1645238095.2,286046997.4,N
1645238115.0,286047000.3,N
1645238115.9,286047000.3,N
1645238135.8,286047005.0,N
1645238155.6,286047000.2,N
1645238175.4,286046994.0,N
1645238195.3,286046989.9,N
1645238215.1,286046986.5,Y
1645238235.9,286046984.2,P
1645238255.7,286046986.9,N
1645238275.5,286046993.6,N
1645238295.4,286046996.8,N
1645238315.2,286046995.0,N
1645238335.0,286046993.7,N
1645238335.9,286046993.7,N
1645238355.8,286046997.2,N
1645238375.6,286046998.1,N
1645238395.5,286046998.8,N
1645238415.3,286046999.0,N
1645238435.1,286047003.9,N
1645238455.9,286047001.5,N
1645238475.7,286047006.6,N
1645238495.5,286047011.5,N
1645238515.4,286047011.5,N
1645238535.2,286047014.1,N
1645238555.1,286047011.9,N
1645238556.0,286047011.9,N
1645238575.8,286047007.2,N
1645238595.6,286047004.8,N
1645238615.5,286047007.1,N
1645238635.3,286047007.6,N
1645238655.1,286047008.2,N
1645238675.9,286047003.7,N
1645238695.7,286047000.2,N
1645238715.6,286047002.2,N
1645238735.4,286046998.6,N
1645238755.2,286046998.9,N
1645238775.1,286047002.5,N
1645238776.0,286047002.5,N
1645238795.8,286046998.9,N
1645238815.6,286046998.5,N
1645238835.5,286047000.9,N
1645238855.3,286046995.3,N
1645238875.2,286047000.6,N
1645238895.9,286047000.0,N
1645238915.7,286047004.5,N
1645238935.6,286047006.4,N
1645238955.4,286047009.1,N
1645238975.2,286047007.1,N
1645238995.1,286047006.8,N
1645238996.0,286047006.8,N
1645239015.8,286047009.1,N
1645239035.7,286047008.9,N
1645239055.5,286047005.6,N
1645239075.3,286047001.0,N
1645239095.2,286046994.9,N
1645239115.0,286046996.5,N
1645239115.9,286046996.5,N
1645239135.8,286046997.9,N
1645239155.6,286046995.7,N
1645239175.4,286046997.7,N
1645239195.3,286046993.7,N
1645239215.1,286046989.1,N
1645239235.8,286046988.8,N
1645239255.7,286046988.0,N
1645239275.5,286046987.5,N
1645239295.3,286046989.0,N
1645239315.2,286046995.4,N
1645239335.0,286046995.1,N
1645239335.9,286046995.1,N
1645239355.8,286046997.9,N
1645239375.6,286046994.9,N
1645239395.4,286046997.3,N
1645239415.3,286047000.1,N
1645239435.1,286047003.5,N
1645239455.9,286047003.4,N
1645239475.7,286047006.2,N
1645239495.5,286047012.3,N
1645239515.4,286047014.7,N
1645239535.2,286047014.6,N
1645239555.0,286047010.8,N
1645239555.9,286047010.8,N
1645239575.8,286047006.0,N
1645239595.6,286047008.8,N
